Weather History for KBLF - May, 2013

Change the Weather History Date:

Saturday, May 25, 2013

  Actual Average Record
Temperature  
Mean Temperature 51 °F 65 °F  
Max Temperature 64 °F 74 °F 85 °F (1991)
Min Temperature 38 °F 55 °F 35 °F (1979)
Degree Days  
Heating Degree Days 14 3  
Month to date heating degree days 151 121  
Since 1 July heating degree days 4679 4551  
Cooling Degree Days 0 3  
Month to date cooling degree days 49 44  
Year to date cooling degree days 76 72  
Moisture  
Dew Point 31 °F    
Average Humidity 55    
Maximum Humidity 85    
Minimum Humidity 25    
Precipitation  
Precipitation 0.00 in 0.15 in 0.72 in (2009)
Month to date precipitation 3.22 3.40  
Year to date precipitation 18.52 15.91  
Snow  
Snow 0.00 in - - ()
Month to date snowfall 0.0  
Since 1 July snowfall 56.0  
Snow Depth 0.00 in    
Sea Level Pressure  
Sea Level Pressure 30.27 in    
Wind  
Wind Speed 7 mph (West)    
Max Wind Speed 20 mph    
Max Gust Speed 26 mph    
Visibility 10 miles    
Events      
T = Trace of Precipitation, MM = Missing Value Source: NWS Daily Summary

Daily Weather History Graph

Daily Weather History Graph

Search for Another Location

Airport or City:

Trip Planner

Search our weather history database for the weather conditions in past years. The results will help you decide how hot, cold, wet, or windy it might be!

Date:

Astronomy

May. 25, 2013 Rise Set
Actual Time 6:09 AM EDT 8:34 PM EDT
Civil Twilight 5:39 AM EDT 9:05 PM EDT
Nautical Twilight 5:02 AM EDT 9:42 PM EDT
Astronomical Twilight 4:21 AM EDT 10:23 PM EDT
Moon 9:21 PM EDT (5/25) 6:34 AM EDT (5/25)
Length of Visible Light 15h 25m
Length of Day
14h 25m
Full, 100% of the Moon is Illuminated
May 25
Full
May 31
Last Quarter
Jun 8
New
Jun 16
First Quarter
Jun 23
Full

Hourly Weather History & Observations

Time (EDT) Temp. Windchill Dew Point Humidity Pressure Visibility Wind Dir Wind Speed Gust Speed Precip Events Conditions
12:52 AM 43.0 °F 41.3 °F 34.0 °F 71% 30.26 in 10.0 mi WSW 3.5 mph - N/A   Clear
1:52 AM 41.0 °F 37.1 °F 34.0 °F 76% 30.26 in 10.0 mi WSW 5.8 mph - N/A   Clear
2:52 AM 39.9 °F 35.8 °F 34.0 °F 79% 30.26 in 10.0 mi WSW 5.8 mph - N/A   Clear
3:52 AM 39.9 °F 35.8 °F 34.0 °F 79% 30.26 in 10.0 mi WSW 5.8 mph - N/A   Clear
4:52 AM 37.9 °F 33.5 °F 33.1 °F 83% 30.27 in 10.0 mi WSW 5.8 mph - N/A   Clear
5:52 AM 37.9 °F 34.4 °F 33.1 °F 83% 30.29 in 10.0 mi WSW 4.6 mph - N/A   Clear
6:52 AM 41.0 °F 39.0 °F 33.1 °F 73% 30.30 in 10.0 mi WSW 3.5 mph - N/A   Clear
7:52 AM 43.0 °F 38.2 °F 34.0 °F 71% 30.32 in 10.0 mi WSW 8.1 mph - N/A   Clear
8:52 AM 46.0 °F 41.4 °F 30.0 °F 54% 30.33 in 10.0 mi West 9.2 mph - N/A   Clear
9:52 AM 50.0 °F - 26.1 °F 39% 30.32 in 10.0 mi West 10.4 mph - N/A   Clear
10:52 AM 54.0 °F - 27.0 °F 35% 30.32 in 10.0 mi NW 10.4 mph 18.4 mph N/A   Clear
11:52 AM 57.0 °F - 25.0 °F 29% 30.31 in 10.0 mi WNW 13.8 mph 19.6 mph N/A   Clear
12:52 PM 60.1 °F - 26.1 °F 27% 30.29 in 10.0 mi West 12.7 mph - N/A   Clear
1:52 PM 62.1 °F - 26.1 °F 25% 30.27 in 10.0 mi WNW 9.2 mph 21.9 mph N/A   Clear
2:52 PM 63.0 °F - 28.0 °F 27% 30.26 in 10.0 mi NNW 12.7 mph 20.7 mph N/A   Partly Cloudy
3:52 PM 59.0 °F - 28.9 °F 32% 30.26 in 10.0 mi WNW 9.2 mph 19.6 mph N/A   Mostly Cloudy
4:52 PM 63.0 °F - 28.9 °F 28% 30.23 in 10.0 mi NW 9.2 mph 17.3 mph N/A   Clear
5:52 PM 59.0 °F - 28.0 °F 31% 30.25 in 10.0 mi WNW 9.2 mph 18.4 mph N/A   Clear
6:52 PM 59.0 °F - 30.0 °F 33% 30.25 in 10.0 mi WNW 10.4 mph 19.6 mph N/A   Clear
7:52 PM 57.0 °F - 33.1 °F 40% 30.25 in 10.0 mi NW 8.1 mph - N/A   Clear
8:52 PM 53.1 °F - 34.0 °F 48% 30.25 in 10.0 mi WNW 4.6 mph - N/A   Clear
9:52 PM 51.1 °F - 36.0 °F 56% 30.24 in 10.0 mi WNW 4.6 mph - N/A   Clear
10:52 PM 50.0 °F - 36.0 °F 59% 30.25 in 10.0 mi Calm Calm - N/A   Clear
11:52 PM 48.0 °F - 36.0 °F 63% 30.25 in 10.0 mi Calm Calm - N/A   Partly Cloudy